Weather History for Souda, Greece

Change the Weather History Date:

Monday, March 11, 2013

  Actual Average Record
Temperature  
Mean Temperature 66 °F -  
Max Temperature 75 °F 64 °F 75 °F (2013)
Min Temperature 56 °F 49 °F 39 °F (2011)
Growing Degree Days 16 (Base 50)    
Moisture  
Dew Point 52 °F    
Average Humidity 61    
Maximum Humidity 77    
Minimum Humidity 40    
Precipitation  
Precipitation 0.00 in 0.08 in - ()
Sea Level Pressure  
Sea Level Pressure 29.65 in    
Wind  
Wind Speed 2 mph ()    
Max Wind Speed 12 mph    
Max Gust Speed -    
Visibility 6.1 miles    
Events      
Averages and records for this station are not official NWS values.
T = Trace of Precipitation, MM = Missing Value Source: Averaged Metar Reports

Daily Weather History Graph

Daily Weather History Graph

Search for Another Location

Airport:

Trip Planner

Search our weather history database for the weather conditions in past years. The results will help you decide how hot, cold, wet, or windy it might be!

Date:

Astronomy

Mar. 11, 2013 Rise Set
Actual Time 6:39 AM EET 6:27 PM EET
Civil Twilight 6:14 AM EET 6:52 PM EET
Nautical Twilight 5:44 AM EET 7:22 PM EET
Astronomical Twilight 5:15 AM EET 7:52 PM EET
Moon 6:03 AM EET (3/11) 6:18 PM EET (3/11)
Length of Visible Light 12h 38m
Length of Day
11h 47m
Waning Crescent, 0% of the Moon is Illuminated
Mar 11
Waning Crescent
Mar 11
New
Mar 19
First Quarter
Mar 27
Full
Apr 3
Last Quarter

Hourly Weather History & Observations

Time (EET) Temp. Dew Point Humidity Pressure Visibility Wind Dir Wind Speed Gust Speed Precip Events Conditions
12:20 AM 60.8 °F 48.2 °F 63% 29.68 in - Calm Calm - N/A   Clear
12:50 AM 60.8 °F 48.2 °F 63% 29.68 in - Calm Calm - N/A   Clear
1:50 AM 59.0 °F 48.2 °F 67% 29.68 in - Calm Calm - N/A   Clear
2:00 AM 59 °F 49 °F 59% 29.68 in 6 mi Calm Calm - -  
2:20 AM 59.0 °F 48.2 °F 67% 29.68 in - Calm Calm - N/A   Clear
2:50 AM 59.0 °F 48.2 °F 67% 29.65 in - Calm Calm - N/A   Clear
3:50 AM 57.2 °F 48.2 °F 72% 29.65 in - Calm Calm - N/A   Clear
4:50 AM 57.2 °F 48.2 °F 72% 29.62 in - WNW 8.1 mph - N/A   Clear
5:20 AM 55.4 °F 48.2 °F 77% 29.62 in - West 6.9 mph - N/A   Clear
5:50 AM 59.0 °F 48.2 °F 67% 29.62 in - West 5.8 mph - N/A   Clear
6:20 AM 59.0 °F 48.2 °F 67% 29.62 in - Calm Calm - N/A   Clear
6:50 AM 57.2 °F 50.0 °F 77% 29.62 in - Calm Calm - N/A   Clear
7:20 AM 57.2 °F 50.0 °F 77% 29.62 in - SSW 4.6 mph - N/A   Clear
7:50 AM 59.0 °F 51.8 °F 77% 29.62 in - Calm Calm - N/A   Clear
8:00 AM 59 °F 52 °F 69% 29.64 in 6 mi Calm Calm - -   Clear
8:20 AM 59.0 °F 51.8 °F 77% 29.62 in - Calm Calm - N/A   Clear
8:50 AM 64.4 °F 51.8 °F 64% 29.62 in - Calm Calm - N/A   Clear
9:20 AM 66.2 °F 51.8 °F 60% 29.62 in - Calm Calm - N/A   Clear
9:50 AM 69.8 °F 51.8 °F 53% 29.65 in - Calm Calm - N/A   Clear
10:20 AM 71.6 °F 51.8 °F 50% 29.65 in - Calm Calm - N/A   Clear
10:50 AM 73.4 °F 51.8 °F 47% 29.65 in - Calm Calm - N/A   Clear
11:20 AM 73.4 °F 51.8 °F 47% 29.65 in - Calm Calm - N/A   Clear
11:50 AM 73.4 °F 51.8 °F 47% 29.65 in - SSW 4.6 mph - N/A   Clear
12:50 PM 75.2 °F 55.4 °F 50% 29.65 in - West 9.2 mph - N/A   Clear
1:20 PM 75.2 °F 55.4 °F 50% 29.65 in - West 9.2 mph - N/A   Clear
1:50 PM 75.2 °F 55.4 °F 50% 29.65 in - West 5.8 mph - N/A   Clear
2:00 PM 74 °F 54 °F 40% 29.64 in 6 mi West 5.8 mph - -   Clear
2:20 PM 75.2 °F 55.4 °F 50% 29.65 in - West 5.8 mph - N/A   Clear
2:50 PM 75.2 °F 55.4 °F 50% 29.65 in - WNW 10.4 mph - N/A   Clear
3:20 PM 75.2 °F 55.4 °F 50% 29.65 in - WNW 5.8 mph - N/A   Clear
3:50 PM 73.4 °F 50.0 °F 44% 29.65 in - Calm Calm - N/A   Clear
4:20 PM 73.4 °F 50.0 °F 44% 29.65 in - WNW 11.5 mph - N/A   Clear
4:50 PM 71.6 °F 53.6 °F 53% 29.65 in - WNW 9.2 mph - N/A   Clear
5:20 PM 71.6 °F 53.6 °F 53% 29.65 in - NW 8.1 mph - N/A   Clear
5:50 PM 69.8 °F 55.4 °F 60% 29.65 in - WNW 8.1 mph - N/A   Clear
6:20 PM 69.8 °F 55.4 °F 60% 29.65 in - WNW 8.1 mph - N/A   Clear
6:50 PM 64.4 °F 50.0 °F 59% 29.65 in - WNW 5.8 mph - N/A   Clear
7:50 PM 62.6 °F 51.8 °F 68% 29.68 in 6.2 mi Calm Calm - N/A   Scattered Clouds
8:00 PM 63 °F 51 °F 56% 29.68 in 6 mi Calm Calm - -   Scattered Clouds
8:20 PM 62.6 °F 51.8 °F 68% 29.68 in 6.2 mi Calm Calm - N/A   Scattered Clouds
8:50 PM 62.6 °F 51.8 °F 68% 29.68 in 6.2 mi Calm Calm - N/A   Scattered Clouds
9:25 PM 62.6 °F 51.8 °F 68% 29.68 in 6.2 mi Calm Calm - N/A   Scattered Clouds
9:50 PM 60.8 °F 53.6 °F 77% 29.68 in 6.2 mi Calm Calm - N/A   Scattered Clouds
10:50 PM 60.8 °F 53.6 °F 77% 29.68 in 6.2 mi Calm Calm - N/A   Scattered Clouds
11:20 PM 60.8 °F 53.6 °F 77% 29.68 in 6.2 mi Calm Calm - N/A   Scattered Clouds
11:50 PM 60.8 °F 50.0 °F 68% 29.71 in 6.2 mi Calm Calm - N/A   Scattered Clouds